Weather History for Scappoose, OR

Change the Weather History Date:

Sunday, April 28, 2013

  Actual Average Record
Temperature  
Mean Temperature 57 °F -  
Max Temperature 67 °F - 80 °F (2006)
Min Temperature 48 °F - 33 °F (2014)
Degree Days  
Heating Degree Days 7    
Month to date heating degree days 412  
Since 1 July heating degree days 4359  
Cooling Degree Days 0    
Month to date cooling degree days 0  
Year to date cooling degree days 0  
Growing Degree Days 7 (Base 50)    
Moisture  
Dew Point 45 °F    
Average Humidity 60    
Maximum Humidity 86    
Minimum Humidity 34    
Precipitation  
Precipitation 0.01 in - 0.18 in (2011)
Month to date precipitation 2.16  
Year to date precipitation 8.61  
Sea Level Pressure  
Sea Level Pressure 30.20 in    
Wind  
Wind Speed 4 mph (NNW)    
Max Wind Speed 15 mph    
Max Gust Speed 22 mph    
Visibility 10 miles    
Events Rain    
T = Trace of Precipitation, MM = Missing Value Source: NWS Daily Summary

Daily Weather History Graph

Daily Weather History Graph

Search for Another Location

Airport:

Trip Planner

Search our weather history database for the weather conditions in past years. The results will help you decide how hot, cold, wet, or windy it might be!

Date:

Astronomy

Apr. 28, 2013 Rise Set
Actual Time 6:03 AM PDT 8:15 PM PDT
Civil Twilight 5:30 AM PDT 8:48 PM PDT
Nautical Twilight 4:50 AM PDT 9:28 PM PDT
Astronomical Twilight 4:05 AM PDT 10:14 PM PDT
Moon 11:56 PM PDT (4/28) 8:19 AM PDT (4/28)
Length of Visible Light 15h 17m
Length of Day
14h 12m
Waning Gibbous, 88% of the Moon is Illuminated
Apr 28
Waning Gibbous
May 2
Last Quarter
May 9
New
May 17
First Quarter
May 24
Full

Hourly Weather History & Observations

Time (PDT) Temp. Dew Point Humidity Pressure Visibility Wind Dir Wind Speed Gust Speed Precip Events Conditions
12:53 AM 52.0 °F 46.9 °F 83% 30.25 in 10.0 mi NNE 4.6 mph - N/A   Overcast
1:08 AM 53.6 °F 46.4 °F 77% 30.25 in 10.0 mi Variable 3.5 mph - N/A   Overcast
1:53 AM 52.0 °F 46.9 °F 83% 30.25 in 10.0 mi Calm Calm - N/A   Overcast
2:08 AM 51.8 °F 46.4 °F 82% 30.24 in 10.0 mi Calm Calm - N/A   Overcast
2:53 AM 52.0 °F 46.9 °F 83% 30.24 in 10.0 mi Calm Calm - N/A   Overcast
3:53 AM 51.1 °F 46.9 °F 86% 30.23 in 10.0 mi Calm Calm - N/A   Overcast
4:23 AM 51.8 °F 46.4 °F 82% 30.23 in 10.0 mi Calm Calm - N/A   Overcast
4:53 AM 51.1 °F 46.0 °F 83% 30.23 in 10.0 mi Calm Calm - N/A   Overcast
6:53 AM 48.9 °F 45.0 °F 86% 30.23 in 10.0 mi Calm Calm - N/A   Overcast
7:43 AM 51.8 °F 46.4 °F 82% 30.24 in 5.0 mi NNW 3.5 mph - 0.00 in Rain Light Rain
7:53 AM 52.0 °F 46.9 °F 83% 30.25 in 7.0 mi Calm Calm - 0.00 in Rain Light Rain
8:08 AM 53.6 °F 48.2 °F 82% 30.25 in 10.0 mi North 3.5 mph - 0.00 in   Overcast
8:15 AM 53.6 °F 48.2 °F 82% 30.25 in 4.0 mi WNW 3.5 mph - 0.00 in Rain Light Rain
8:42 AM 55.4 °F 48.2 °F 77% 30.25 in 10.0 mi NW 3.5 mph - 0.01 in   Mostly Cloudy
8:53 AM 55.9 °F 48.0 °F 75% 30.25 in 10.0 mi NNW 4.6 mph - 0.01 in   Scattered Clouds
9:53 AM 57.0 °F 46.9 °F 69% 30.25 in 10.0 mi Variable 3.5 mph - N/A   Scattered Clouds
10:53 AM 60.1 °F 46.0 °F 60% 30.25 in 10.0 mi Variable 5.8 mph - N/A   Mostly Cloudy
11:53 AM 62.1 °F 41.0 °F 46% 30.24 in 10.0 mi Variable 5.8 mph - N/A   Mostly Cloudy
12:53 PM 64.9 °F 39.9 °F 40% 30.22 in 10.0 mi NNW 8.1 mph - N/A   Partly Cloudy
1:53 PM 64.0 °F 39.0 °F 40% 30.21 in 10.0 mi NW 9.2 mph - N/A   Mostly Cloudy
2:53 PM 66.0 °F 37.9 °F 36% 30.19 in 10.0 mi NNW 12.7 mph 17.3 mph N/A   Clear
3:53 PM 66.0 °F 37.9 °F 36% 30.17 in 10.0 mi NW 10.4 mph 16.1 mph N/A   Clear
4:53 PM 64.9 °F 39.0 °F 39% 30.15 in 10.0 mi Calm Calm - N/A   Mostly Cloudy
5:53 PM 61.0 °F 44.1 °F 54% 30.14 in 10.0 mi ENE 10.4 mph - N/A   Mostly Cloudy
6:53 PM 61.0 °F 44.1 °F 54% 30.12 in 10.0 mi Calm Calm - N/A   Overcast
7:53 PM 57.9 °F 45.0 °F 62% 30.10 in 10.0 mi East 3.5 mph - N/A   Overcast
8:53 PM 54.0 °F 46.0 °F 75% 30.10 in 10.0 mi Calm Calm - 0.00 in Rain Light Rain
9:53 PM 53.1 °F 46.9 °F 80% 30.10 in 10.0 mi Calm Calm - 0.00 in   Overcast
10:53 PM 52.0 °F 46.0 °F 80% 30.08 in 10.0 mi Variable 6.9 mph - N/A   Overcast
11:53 PM 54.0 °F 43.0 °F 66% 30.06 in 10.0 mi SSW 5.8 mph - N/A   Overcast